This demonstration page uses our WeatherBlox Daily Observations layout. Learn more.

Left ArrowRight Arrow

34.74481, -87.66753

Hourly Observations for March 31, 2018

Temp ( °F °C ) Dew Point ( °F °C ) Humidity (%) Winds ( mph kmh ) Pressure ( in mb ) Visibility ( mi km ) Precip ( " mm )
12:53 am 00:53 Clear 44 6.7 40 4.4 85 85 Calm 30.28 1026 10 16 0.00 0.00
1:53 am 01:53 Clear 43 6.1 40 4.4 89 89 Calm 30.27 1025 9 14 0.00 0.00
2:53 am 02:53 Clear 42 5.6 38 3.3 85 85 Calm 30.27 1025 10 16 0.00 0.00
3:53 am 03:53 Clear 42 5.6 39 3.9 89 89 Calm 30.27 1025 9 14 0.00 0.00
4:19 am 04:19 Clear with Mist and Fog 41 5 38 3.3 89 89 Calm 30.27 1025 2 3 0.00 0.00
4:30 am 04:30 Clear with Mist and Fog 40 4.4 38 3.3 93 93 Calm 30.27 1025 1 1 0.00 0.00
4:41 am 04:41 Mostly Cloudy with Fog 40 4.4 37 2.8 89 89 Calm 30.27 1025 0 0 0.00 0.00
4:53 am 04:53 Mostly Cloudy with Fog 39 3.9 37 2.8 93 93 SSE 3 6 30.27 1025 0 0 0.00 0.00
4:56 am 04:56 Mostly Cloudy with Fog 40 4.4 37 2.8 89 89 Calm 30.27 1025 1 1 0.00 0.00
5:21 am 05:21 Mostly Cloudy with Mist and Fog 40 4.4 37 2.8 89 89 Calm 30.30 1026 1 2 0.00 0.00
5:32 am 05:32 Mostly Clear with Mist and Fog 40 4.4 37 2.8 89 89 Calm 30.30 1026 2 2 0.00 0.00
5:42 am 05:42 Mostly Cloudy with Mist and Fog 40 4.4 37 2.8 89 89 Calm 30.30 1026 1 2 0.00 0.00
5:53 am 05:53 Mostly Cloudy with Mist and Fog 39 3.9 37 2.8 93 93 Calm 30.29 1026 1 1 0.00 0.00
6:09 am 06:09 Mostly Clear with Mist and Fog 39 3.9 36 2.2 89 89 Calm 30.33 1027 1 2 0.00 0.00
6:38 am 06:38 Mostly Cloudy with Fog 38 3.3 36 2.2 93 93 Calm 30.33 1027 0 0 0.00 0.00
6:53 am 06:53 Mostly Cloudy with Fog 38 3.3 36 2.2 93 93 SE 3 6 30.30 1026 0 0 0.00 0.00
7:45 am 07:45 Mostly Cloudy with Fog 41 5 40 4.4 96 96 Calm 30.30 1026 0 0 0.00 0.00
7:53 am 07:53 Mostly Cloudy with Fog 42 5.6 41 5 96 96 Calm 30.30 1026 1 1 0.00 0.00
8:04 am 08:04 Mostly Cloudy with Mist and Fog 43 6.1 42 5.6 97 97 Calm 30.30 1026 1 2 0.00 0.00
8:07 am 08:07 Mostly Cloudy with Mist and Fog 44 6.7 42 5.6 93 93 Calm 30.30 1026 3 5 0.00 0.00
8:15 am 08:15 Partly Cloudy 44 6.7 42 5.6 93 93 Calm 30.30 1026 9 14 0.00 0.00
8:53 am 08:53 Sunny 47 8.3 43 6.1 86 86 SSE 6 9 30.29 1026 10 16 0.00 0.00
9:53 am 09:53 Sunny 57 13.9 41 5 55 55 SSE 12 19 30.30 1026 10 16 0.00 0.00
10:53 am 10:53 Sunny 60 15.6 38 3.3 44 44 SSE 13 20 30.30 1026 10 16 0.00 0.00
11:53 am 11:53 Sunny 63 17.2 38 3.3 40 40 S 13 20 30.27 1025 10 16 0.00 0.00
12:53 pm 12:53 Sunny 65 18.3 37 2.8 36 36 SSE 6 9 30.24 1024 10 16 0.00 0.00
1:53 pm 13:53 Sunny 67 19.4 36 2.2 32 32 S 7 11 30.20 1023 10 16 0.00 0.00
2:53 pm 14:53 Sunny 69 20.6 35 1.7 29 29 SSW 9 15 30.17 1022 10 16 0.00 0.00
3:53 pm 15:53 Sunny 71 21.7 37 2.8 29 29 S 9 15 30.14 1021 10 16 0.00 0.00
4:53 pm 16:53 Sunny 71 21.7 35 1.7 27 27 SSW 10 17 30.13 1020 10 16 0.00 0.00
5:53 pm 17:53 Sunny 70 21.1 34 1.1 27 27 SSW 12 19 30.12 1020 10 16 0.00 0.00
6:53 pm 18:53 Sunny 66 18.9 37 2.8 34 34 S 6 9 30.12 1020 10 16 0.00 0.00
7:53 pm 19:53 Clear 62 16.7 37 2.8 40 40 SSE 6 9 30.11 1020 10 16 0.00 0.00
8:53 pm 20:53 Clear 60 15.6 38 3.3 44 44 SSE 6 9 30.11 1020 10 16 0.00 0.00
9:53 pm 21:53 Clear 57 13.9 38 3.3 49 49 SSW 3 6 30.11 1020 10 16 0.00 0.00
10:53 pm 22:53 Clear 57 13.9 36 2.2 45 45 Calm 30.12 1020 10 16 0.00 0.00
11:53 pm 23:53 Clear 52 11.1 40 4.4 64 64 SSE 3 6 30.11 1020 10 16 0.00 0.00

Powered by AerisWeather